Time,TemperatureF,DewpointF,PressureIn,WindDirection,WindDirectionDegrees,WindSpeedMPH,WindSpeedGustMPH,Humidity,HourlyPrecipIn,Conditions,Clouds,dailyrainin,SolarRadiationWatts/m^2,SoftwareType,DateUTC
2013-08-14 00:12:00,53.0,52.0,-100.00,SSE,167,2.0,3.0,96,0.00,,,0.00,1.000000,,2013-08-14 05:12:00,
2013-08-14 00:22:00,53.0,52.0,-100.00,SSE,167,2.0,3.0,96,0.00,,,0.00,1.000000,,2013-08-14 05:22:00,
2013-08-14 00:32:00,53.0,52.0,-100.00,SSE,167,2.0,3.0,96,0.00,,,0.00,1.000000,,2013-08-14 05:32:00,
2013-08-14 00:42:00,53.0,52.0,-100.00,SSE,167,2.0,3.0,96,0.00,,,0.00,1.000000,,2013-08-14 05:42:00,
2013-08-14 01:11:00,53.0,53.0,-100.00,SW,226,3.0,4.0,100,0.00,,,0.00,1.000000,,2013-08-14 06:11:00,
2013-08-14 01:21:00,53.0,53.0,-100.00,SW,226,3.0,4.0,100,0.00,,,0.00,1.000000,,2013-08-14 06:21:00,
2013-08-14 01:31:00,53.0,53.0,-100.00,SW,226,3.0,4.0,100,0.00,,,0.00,1.000000,,2013-08-14 06:31:00,
2013-08-14 01:42:00,53.0,53.0,-100.00,SW,226,3.0,4.0,100,0.00,,,0.00,1.000000,,2013-08-14 06:42:00,
2013-08-14 02:11:00,53.0,53.0,-100.00,ESE,111,1.0,6.0,100,0.00,,,0.00,1.000000,,2013-08-14 07:11:00,
2013-08-14 02:21:00,53.0,53.0,-100.00,ESE,111,1.0,6.0,100,0.00,,,0.00,1.000000,,2013-08-14 07:21:00,
2013-08-14 02:32:00,53.0,53.0,-100.00,ESE,111,1.0,6.0,100,0.00,,,0.00,1.000000,,2013-08-14 07:32:00,
2013-08-14 02:42:00,53.0,53.0,-100.00,ESE,111,1.0,6.0,100,0.00,,,0.00,1.000000,,2013-08-14 07:42:00,
2013-08-14 03:11:00,52.0,52.0,-100.00,SSW,199,2.0,3.0,100,0.00,,,-99.99,1.000000,,2013-08-14 08:11:00,
2013-08-14 03:21:00,52.0,52.0,-100.00,SSW,199,2.0,3.0,100,0.00,,,-99.99,1.000000,,2013-08-14 08:21:00,
2013-08-14 03:31:00,52.0,52.0,-100.00,SSW,199,2.0,3.0,100,0.00,,,-99.99,1.000000,,2013-08-14 08:31:00,
2013-08-14 03:42:00,52.0,52.0,-100.00,SSW,199,2.0,3.0,100,0.00,,,-99.99,1.000000,,2013-08-14 08:42:00,
2013-08-14 04:11:00,52.0,52.0,-100.00,SSW,213,1.0,5.0,100,0.00,,,0.00,1.000000,,2013-08-14 09:11:00,
2013-08-14 04:21:00,52.0,52.0,-100.00,SSW,213,1.0,5.0,100,0.00,,,0.00,1.000000,,2013-08-14 09:21:00,
2013-08-14 04:33:00,52.0,52.0,-100.00,SSW,213,1.0,5.0,100,0.00,,,0.00,1.000000,,2013-08-14 09:33:00,
2013-08-14 04:43:00,52.0,52.0,-100.00,SSW,213,1.0,5.0,100,0.00,,,0.00,1.000000,,2013-08-14 09:43:00,
2013-08-14 05:12:00,50.0,50.0,-100.00,South,170,0.0,3.0,100,0.00,,,0.00,1.000000,,2013-08-14 10:12:00,
2013-08-14 05:23:00,50.0,50.0,-100.00,South,170,0.0,3.0,100,0.00,,,0.00,1.000000,,2013-08-14 10:23:00,
2013-08-14 05:32:00,50.0,50.0,-100.00,South,170,0.0,3.0,100,0.00,,,0.00,1.000000,,2013-08-14 10:32:00,
2013-08-14 05:42:00,50.0,50.0,-100.00,South,170,0.0,3.0,100,0.00,,,0.00,1.000000,,2013-08-14 10:42:00,
2013-08-14 06:11:00,51.0,51.0,-100.00,South,188,0.0,0.0,100,0.00,,,0.00,1.000000,,2013-08-14 11:11:00,
2013-08-14 06:21:00,51.0,51.0,-100.00,South,188,0.0,0.0,100,0.00,,,0.00,1.000000,,2013-08-14 11:21:00,
2013-08-14 06:32:00,51.0,51.0,-100.00,South,188,0.0,0.0,100,0.00,,,0.00,1.000000,,2013-08-14 11:32:00,
2013-08-14 06:42:00,51.0,51.0,-100.00,South,188,0.0,0.0,100,0.00,,,0.00,1.000000,,2013-08-14 11:42:00,
2013-08-14 07:11:00,52.0,52.0,-100.00,SW,219,3.0,5.0,100,0.00,,,0.00,9.000000,,2013-08-14 12:11:00,
2013-08-14 07:21:00,52.0,52.0,-100.00,SW,219,3.0,5.0,100,0.00,,,0.00,9.000000,,2013-08-14 12:21:00,
2013-08-14 07:31:00,52.0,52.0,-100.00,SW,219,3.0,5.0,100,0.00,,,0.00,9.000000,,2013-08-14 12:31:00,
2013-08-14 07:42:00,52.0,52.0,-100.00,SW,219,3.0,5.0,100,0.00,,,0.00,9.000000,,2013-08-14 12:42:00,
2013-08-14 08:11:00,55.0,55.0,-100.00,SW,219,3.0,5.0,100,0.00,,,0.00,134.000000,,2013-08-14 13:11:00,
2013-08-14 08:22:00,55.0,55.0,-100.00,SW,219,3.0,5.0,100,0.00,,,0.00,134.000000,,2013-08-14 13:22:00,
2013-08-14 08:31:00,55.0,55.0,-100.00,SW,219,3.0,5.0,100,0.00,,,0.00,134.000000,,2013-08-14 13:31:00,
2013-08-14 08:42:00,55.0,55.0,-100.00,SW,219,3.0,5.0,100,0.00,,,0.00,134.000000,,2013-08-14 13:42:00,
2013-08-14 09:11:00,62.0,59.0,-100.00,SSW,204,4.0,6.0,91,0.00,,,0.00,309.000000,,2013-08-14 14:11:00,
2013-08-14 09:22:00,62.0,59.0,-100.00,SSW,204,4.0,6.0,91,0.00,,,0.00,309.000000,,2013-08-14 14:22:00,
2013-08-14 09:32:00,62.0,59.0,-100.00,SSW,204,4.0,6.0,91,0.00,,,0.00,309.000000,,2013-08-14 14:32:00,
2013-08-14 09:42:00,62.0,59.0,-100.00,SSW,204,4.0,6.0,91,0.00,,,0.00,309.000000,,2013-08-14 14:42:00,
2013-08-14 10:11:00,68.0,61.0,-100.00,SW,233,4.0,7.0,77,0.00,,,0.00,484.000000,,2013-08-14 15:11:00,
2013-08-14 10:22:00,68.0,61.0,-100.00,SW,233,4.0,7.0,77,0.00,,,0.00,484.000000,,2013-08-14 15:22:00,
2013-08-14 10:33:00,68.0,61.0,-100.00,SW,233,4.0,7.0,77,0.00,,,0.00,484.000000,,2013-08-14 15:33:00,
2013-08-14 10:43:00,68.0,61.0,-100.00,SW,233,4.0,7.0,77,0.00,,,0.00,484.000000,,2013-08-14 15:43:00,
2013-08-14 11:13:00,72.0,55.0,-100.00,WSW,245,6.0,11.0,56,0.00,,,0.00,642.000000,,2013-08-14 16:13:00,
2013-08-14 11:28:00,72.0,55.0,-100.00,WSW,245,6.0,11.0,56,0.00,,,0.00,642.000000,,2013-08-14 16:28:00,
2013-08-14 11:34:00,72.0,55.0,-100.00,WSW,245,6.0,11.0,56,0.00,,,0.00,642.000000,,2013-08-14 16:34:00,
2013-08-14 11:43:00,72.0,55.0,-100.00,WSW,245,6.0,11.0,56,0.00,,,0.00,642.000000,,2013-08-14 16:43:00,
2013-08-14 12:20:00,74.0,54.0,-100.00,West,268,6.0,10.0,50,0.00,,,0.00,761.000000,,2013-08-14 17:20:00,
2013-08-14 12:29:00,74.0,54.0,-100.00,West,268,6.0,10.0,50,0.00,,,0.00,761.000000,,2013-08-14 17:29:00,
2013-08-14 12:36:00,74.0,54.0,-100.00,West,268,6.0,10.0,50,0.00,,,0.00,761.000000,,2013-08-14 17:36:00,
2013-08-14 12:44:00,74.0,54.0,-100.00,West,268,6.0,10.0,50,0.00,,,0.00,761.000000,,2013-08-14 17:44:00,
2013-08-14 13:28:00,-999.0,-99.9,-100.00,West,264,5.0,12.0,42,0.00,,,0.00,645.000000,,2013-08-14 18:28:00,
2013-08-14 13:35:00,75.0,50.0,-100.00,West,264,5.0,12.0,42,0.00,,,0.00,645.000000,,2013-08-14 18:35:00,
2013-08-14 14:13:00,77.0,48.0,-100.00,SW,218,6.0,13.0,36,0.00,,,0.00,897.000000,,2013-08-14 19:13:00,
2013-08-14 14:32:00,77.0,48.0,-100.00,SW,218,6.0,13.0,36,0.00,,,0.00,897.000000,,2013-08-14 19:32:00,
2013-08-14 14:42:00,77.0,48.0,-100.00,SW,218,6.0,13.0,36,0.00,,,0.00,897.000000,,2013-08-14 19:42:00,
2013-08-14 14:49:00,78.0,50.0,-100.00,WSW,246,5.0,12.0,37,0.00,,,0.00,788.000000,,2013-08-14 19:49:00,
2013-08-14 15:12:00,78.0,50.0,-100.00,WSW,246,5.0,12.0,37,0.00,,,0.00,788.000000,,2013-08-14 20:12:00,
2013-08-14 15:35:00,78.0,50.0,-100.00,WSW,246,5.0,12.0,37,0.00,,,0.00,788.000000,,2013-08-14 20:35:00,
2013-08-14 16:13:00,77.0,48.0,-100.00,WSW,240,6.0,12.0,36,0.00,,,0.00,702.000000,,2013-08-14 21:13:00,
2013-08-14 16:24:00,77.0,48.0,-100.00,WSW,240,6.0,12.0,36,0.00,,,0.00,702.000000,,2013-08-14 21:24:00,
2013-08-14 16:34:00,77.0,48.0,-100.00,WSW,240,6.0,12.0,36,0.00,,,0.00,702.000000,,2013-08-14 21:34:00,
2013-08-14 16:45:00,77.0,48.0,-100.00,WSW,240,6.0,12.0,36,0.00,,,0.00,702.000000,,2013-08-14 21:45:00,
2013-08-14 17:23:00,78.0,47.0,-100.00,West,262,5.0,11.0,34,0.00,,,0.00,542.000000,,2013-08-14 22:23:00,
2013-08-14 17:35:00,78.0,47.0,-100.00,West,262,5.0,11.0,34,0.00,,,0.00,542.000000,,2013-08-14 22:35:00,
2013-08-14 17:44:00,78.0,47.0,-100.00,West,262,5.0,11.0,34,0.00,,,0.00,542.000000,,2013-08-14 22:44:00,
2013-08-14 18:13:00,78.0,52.0,-100.00,SW,217,6.0,10.0,40,0.00,,,0.00,428.000000,,2013-08-14 23:13:00,
2013-08-14 18:25:00,78.0,52.0,-100.00,SW,217,6.0,10.0,40,0.00,,,0.00,428.000000,,2013-08-14 23:25:00,
2013-08-14 18:37:00,78.0,52.0,-100.00,SW,217,6.0,10.0,40,0.00,,,0.00,428.000000,,2013-08-14 23:37:00,
2013-08-14 18:46:00,78.0,52.0,-100.00,SW,217,6.0,10.0,40,0.00,,,0.00,428.000000,,2013-08-14 23:46:00,
2013-08-14 19:12:00,75.0,48.0,-100.00,WSW,243,6.0,9.0,39,0.00,,,0.00,305.000000,,2013-08-15 00:12:00,
2013-08-14 19:23:00,75.0,48.0,-100.00,WSW,243,6.0,9.0,39,0.00,,,0.00,305.000000,,2013-08-15 00:23:00,
2013-08-14 19:32:00,75.0,48.0,-100.00,WSW,243,6.0,9.0,39,0.00,,,0.00,305.000000,,2013-08-15 00:32:00,
2013-08-14 19:43:00,75.0,48.0,-100.00,WSW,243,6.0,9.0,39,0.00,,,0.00,305.000000,,2013-08-15 00:43:00,
2013-08-14 20:16:00,71.0,49.0,-100.00,SW,223,5.0,12.0,45,0.00,,,0.00,126.000000,,2013-08-15 01:16:00,
2013-08-14 20:22:00,71.0,49.0,-100.00,SW,223,5.0,12.0,45,0.00,,,0.00,126.000000,,2013-08-15 01:22:00,
2013-08-14 20:32:00,71.0,49.0,-100.00,SW,223,5.0,12.0,45,0.00,,,0.00,126.000000,,2013-08-15 01:32:00,
2013-08-14 20:42:00,71.0,49.0,-100.00,SW,223,5.0,12.0,45,0.00,,,0.00,126.000000,,2013-08-15 01:42:00,
2013-08-14 21:11:00,64.0,48.0,-100.00,South,181,3.0,6.0,56,0.00,,,0.00,9.000000,,2013-08-15 02:11:00,
2013-08-14 21:21:00,64.0,48.0,-100.00,South,181,3.0,6.0,56,0.00,,,0.00,9.000000,,2013-08-15 02:21:00,
2013-08-14 21:31:00,64.0,48.0,-100.00,South,181,3.0,6.0,56,0.00,,,0.00,9.000000,,2013-08-15 02:31:00,
2013-08-14 21:42:00,64.0,48.0,-100.00,South,181,3.0,6.0,56,0.00,,,0.00,9.000000,,2013-08-15 02:42:00,
2013-08-14 22:11:00,62.0,56.0,-100.00,SSW,212,3.0,4.0,80,0.00,,,0.00,1.000000,,2013-08-15 03:11:00,
2013-08-14 22:22:00,62.0,56.0,-100.00,SSW,212,3.0,4.0,80,0.00,,,0.00,1.000000,,2013-08-15 03:22:00,
2013-08-14 22:33:00,62.0,56.0,-100.00,SSW,212,3.0,4.0,80,0.00,,,0.00,1.000000,,2013-08-15 03:33:00,
2013-08-14 22:43:00,62.0,56.0,-100.00,SSW,212,3.0,4.0,80,0.00,,,0.00,1.000000,,2013-08-15 03:43:00,
2013-08-14 23:12:00,58.0,53.0,-100.00,SSW,206,3.0,4.0,84,0.00,,,0.00,1.000000,,2013-08-15 04:12:00,
2013-08-14 23:23:00,58.0,53.0,-100.00,SSW,206,3.0,4.0,84,0.00,,,0.00,1.000000,,2013-08-15 04:23:00,
2013-08-14 23:32:00,58.0,53.0,-100.00,SSW,206,3.0,4.0,84,0.00,,,0.00,1.000000,,2013-08-15 04:32:00,
2013-08-14 23:43:00,58.0,53.0,-100.00,SSW,206,3.0,4.0,84,0.00,,,0.00,1.000000,,2013-08-15 04:43:00,